sat.trackr.live / text

‹ back to catalog

STARLINK-4793

NORAD 53867 · 2022-114BB

PAYLOAD ACTIVE UNKNOWN

§ Identity

Operator
Country
US
Launch date
2022-09-19
Launch site
AFETR
Launch vehicle
Mass (kg)
RCS (m²)

Purposes: comms

External: N2YO · Heavens-Above · Gunter

§ Orbital elements

Epoch: 2026-09-20T22:00:03.000096Z

Period
93.61 min
Inclination
53.1862°
Eccentricity
0.0001507
Mean motion
15.38341427 rev/d
Perigee alt
450.0 km
Apogee alt
452.0 km
Semi-major
6,829.2 km
B*
3.0265e-3
RAAN
91.9982°
Arg perigee
101.8936°
Mean anomaly
146.3387°
Rev number
570

§ Raw data

STARLINK-47931 53867U 22114BB  26263.91670139  .00117509  00000+0  30265-2 0  99942 53867  53.1862  91.9982 0001507 101.8936 146.3387 15.38341427  5707

JSON: /api/v1/satellites/53867 · /tle

For live sub-satellite position, see the globe view (requires WebGL).

§ Visibility from observer

Set your observer location to see the next 7 days of passes ≥ 10°. The values pass through the URL so the page stays shareable.

No JS? Fill the form by hand. The geolocation button needs JavaScript.